Santa Maria, CA

4:14 PM PDT on March 23, 2017 (GMT -0700)
Santa Maria Public Airport / Captain G. Allan Hancock Field

Weather History for KSMX - October, 2012

Change the Weather History Date:

Thursday, October 25, 2012

  Actual Average Record
Temperature  
Mean Temperature 59 °F 60 °F  
Max Temperature 72 °F 73 °F 92 °F (1965)
Min Temperature 45 °F 47 °F 34 °F (1949)
Degree Days  
Heating Degree Days 6 6  
Month to date heating degree days 77 111  
Since 1 July heating degree days 241 328  
Cooling Degree Days 0 0  
Month to date cooling degree days 58 21  
Year to date cooling degree days 87 103  
Growing Degree Days 8 (Base 50)    
Moisture  
Dew Point 48 °F    
Average Humidity 64    
Maximum Humidity 93    
Minimum Humidity 35    
Precipitation  
Precipitation 0.00 in 0.03 in 0.30 in (1951)
Month to date precipitation 0.22 0.40  
Year to date precipitation 7.45 10.30  
Since 1 July precipitation 0.25  
Sea Level Pressure  
Sea Level Pressure 30.15 in    
Wind  
Wind Speed 9 mph (NW)    
Max Wind Speed 26 mph    
Max Gust Speed 38 mph    
Visibility 10 miles    
Events      
T = Trace of Precipitation, MM = Missing Value Source: NWS Daily Summary

Daily Weather History Graph

Daily Weather History Graph

Search for Another Location

Airport or City:

Trip Planner

Search our weather history database for the weather conditions in past years. The results will help you decide how hot, cold, wet, or windy it might be!

Date:

Astronomy

Oct. 25, 2012 Rise Set
Actual Time 7:16 AM PDT 6:14 PM PDT
Civil Twilight 6:50 AM PDT 6:40 PM PDT
Nautical Twilight 6:21 AM PDT 7:09 PM PDT
Astronomical Twilight 5:51 AM PDT 7:39 PM PDT
Moon 3:56 PM PDT (10/25) 3:26 AM PDT (10/25)
Length of Visible Light 11h 49m
Length of Day
10h 57m
Waxing Gibbous, 85% of the Moon is Illuminated
Oct 25
Waxing Gibbous
Oct 29
Full
Nov 6
Last Quarter
Nov 13
New
Nov 20
First Quarter

Hourly Weather History & Observations

Time (PDT) Temp. Dew Point Humidity Pressure Visibility Wind Dir Wind Speed Gust Speed Precip Events Conditions
12:51 AM 50.0 °F 48.0 °F 93% 30.19 in 10.0 mi WNW 3.5 mph - N/A   Clear
1:51 AM 51.1 °F 46.9 °F 86% 30.20 in 10.0 mi Calm Calm - N/A   Clear
2:51 AM 51.1 °F 46.0 °F 83% 30.20 in 10.0 mi Calm Calm - N/A   Clear
3:51 AM 52.0 °F 46.0 °F 80% 30.19 in 10.0 mi Calm Calm - N/A   Clear
4:51 AM 48.0 °F 44.1 °F 86% 30.18 in 10.0 mi Calm Calm - N/A   Clear
5:51 AM 46.9 °F 44.1 °F 90% 30.19 in 10.0 mi Calm Calm - N/A   Clear
6:51 AM 46.9 °F 43.0 °F 86% 30.19 in 10.0 mi Calm Calm - N/A   Partly Cloudy
7:51 AM 48.0 °F 44.1 °F 86% 30.20 in 10.0 mi Calm Calm - N/A   Scattered Clouds
8:51 AM 57.9 °F 46.0 °F 65% 30.19 in 10.0 mi Calm Calm - N/A   Scattered Clouds
9:51 AM 63.0 °F 46.0 °F 54% 30.20 in 10.0 mi NW 4.6 mph - N/A   Clear
10:51 AM 69.1 °F 45.0 °F 42% 30.18 in 10.0 mi NW 11.5 mph - N/A   Clear
11:51 AM 72.0 °F 43.0 °F 35% 30.17 in 10.0 mi WNW 15.0 mph 21.9 mph N/A   Clear
12:51 PM 72.0 °F 45.0 °F 38% 30.14 in 10.0 mi WNW 18.4 mph - N/A   Clear
1:51 PM 70.0 °F 50.0 °F 49% 30.11 in 10.0 mi WNW 20.7 mph - N/A   Clear
2:51 PM 70.0 °F 48.9 °F 47% 30.09 in 10.0 mi WNW 19.6 mph 26.5 mph N/A   Clear
3:51 PM 68.0 °F 55.0 °F 63% 30.08 in 10.0 mi West 19.6 mph - N/A   Clear
4:51 PM 66.0 °F 55.9 °F 70% 30.08 in 10.0 mi WNW 20.7 mph 27.6 mph N/A   Clear
5:51 PM 63.0 °F 55.9 °F 78% 30.08 in 10.0 mi WNW 16.1 mph - N/A   Clear
6:51 PM 59.0 °F 55.9 °F 90% 30.10 in 10.0 mi WNW 11.5 mph - N/A   Clear
7:51 PM 57.0 °F 55.0 °F 93% 30.12 in 10.0 mi NW 5.8 mph - N/A   Clear
8:51 PM 57.9 °F 54.0 °F 87% 30.10 in 10.0 mi WNW 9.2 mph - N/A   Clear
9:51 PM 64.9 °F 46.9 °F 52% 30.10 in 10.0 mi NNE 12.7 mph - N/A   Clear
10:51 PM 64.9 °F 48.0 °F 54% 30.12 in 10.0 mi NNE 10.4 mph - N/A   Clear
11:51 PM 64.0 °F 48.0 °F 56% 30.11 in 10.0 mi NNE 13.8 mph - N/A   Clear